Temp
-17 -17 -18 -18 -17 -17 -17 -17 -17 -17 -17 -17 -17 -17 -17 -17 -17 -17 -17 -17 -17 -17 -16 -16 -16 -16 -16 -16 -16 -16 -16 -16 -16 -15 -15 -15 -15 -15 -15 -15 -15 -16
-17 -17 -18 -18 -18 -18 -17 -18 -17 -17 -17 -17 -17 -17 -17 -17 -17 -17 -17 -17 -17 -17 -17 -17 -17 -17 -16 -16 -16 -16 -16 -16 -16 -16 -16 -16 -16 -16 -15 -16 -16 -16
-17 -17 -17 -18 -18 -18 -18 -18 -17 -17 -17 -17 -17 -17 -17 -17 -17 -17 -17 -17 -17 -17 -17 -17 -17 -17 -17 -17 -17 -17 -17 -17 -16 -16 -16 -16 -16 -16 -16 -16 -16 -16
-17 -17 -17 -18 -18 -18 -18 -18 -17 -17 -17 -17 -17 -17 -17 -17 -17 -18 -18 -18 -18 -18 -17 -17 -17 -17 -17 -17 -17 -17 -17 -17 -17 -17 -17 -17 -16 -16 -16 -16 -16 -16
-17 -17 -17 -17 -18 -18 -18 -18 -18 -18 -18 -17 -17 -17 -17 -18 -18 -18 -18 -18 -18 -18 -18 -18 -18 -18 -18 -17 -17 -17 -17 -17 -17 -17 -17 -17 -17 -17 -17 -17 -17 -17
-17 -17 -17 -17 -17 -18 -18 -18 -18 -18 -18 -18 -18 -18 -18 -18 -18 -18 -18 -18 -18 -18 -18 -18 -18 -18 -18 -18 -18 -18 -18 -18 -17 -17 -17 -17 -17 -17 -17 -17 -17 -17
-17 -17 -17 -17 -18 -18 -18 -18 -18 -18 -18 -18 -18 -18 -18 -18 -18 -18 -18 -18 -18 -18 -18 -18 -18 -18 -18 -18 -18 -18 -18 -18 -18 -18 -18 -18 -17 -17 -17 -17 -17 -17
-17 -17 -17 -18 -18 -18 -18 -18 -18 -18 -18 -18 -18 -19 -19 -18 -18 -18 -18 -18 -18 -19 -19 -18 -18 -18 -18 -18 -18 -18 -18 -18 -18 -18 -18 -18 -18 -18 -18 -18 -18 -18
-17 -17 -17 -17 -18 -18 -18 -18 -18 -18 -18 -18 -18 -19 -19 -19 -19 -18 -18 -18 -18 -18 -19 -18 -18 -18 -18 -18 -18 -18 -18 -18 -18 -18 -18 -18 -18 -18 -18 -18 -18 -18
-17 -17 -17 -17 -17 -18 -18 -18 -18 -18 -18 -18 -18 -18 -18 -19 -19 -19 -19 -18 -18 -18 -18 -18 -19 -19 -19 -19 -19 -19 -19 -19 -19 -19 -19 -19 -18 -18 -18 -18 -18 -18
-18 -17 -17 -17 -17 -18 -18 -18 -18 -18 -18 -18 -18 -18 -18 -18 -18 -19 -19 -19 -19 -18 -18 -18 -19 -19 -19 -19 -19 -19 -19 -19 -19 -19 -19 -19 -19 -19 -19 -19 -18 -18
-18 -18 -18 -18 -18 -18 -18 -18 -18 -18 -18 -18 -18 -18 -18 -18 -18 -18 -19 -19 -19 -19 -18 -18 -19 -19 -19 -19 -19 -19 -19 -19 -19 -19 -19 -19 -19 -19 -19 -19 -19 -19
-18 -18 -18 -18 -18 -18 -18 -18 -18 -18 -18 -18 -18 -18 -18 -18 -18 -18 -18 -19 -19 -19 -19 -19 -19 -19 -19 -19 -19 -19 -19 -19 -19 -19 -19 -19 -19 -19 -19 -19 -19 -19
-18 -18 -18 -18 -18 -18 -18 -18 -18 -18 -18 -18 -18 -18 -18 -18 -18 -18 -18 -19 -19 -19 -19 -19 -19 -19 -19 -19 -19 -19 -19 -19 -19 -19 -19 -19 -19 -19 -19 -19 -19 -19
-18 -18 -18 -18 -18 -18 -18 -18 -18 -18 -18 -18 -18 -18 -19 -18 -18 -18 -19 -19 -19 -19 -19 -19 -19 -19 -19 -19 -19 -19 -19 -19 -19 -19 -19 -19 -19 -19 -19 -19 -19 -19
-19 -19 -19 -19 -18 -18 -18 -19 -19 -19 -19 -19 -19 -19 -19 -19 -19 -19 -19 -19 -19 -19 -19 -19 -19 -19 -19 -19 -19 -19 -19 -19 -19 -19 -19 -19 -19 -19 -19 -19 -19 -19
-19 -19 -19 -19 -19 -19 -19 -19 -19 -19 -19 -19 -19 -19 -19 -19 -19 -19 -19 -19 -19 -19 -19 -19 -19 -19 -19 -19 -19 -19 -19 -19 -19 -19 -19 -19 -19 -19 -19 -19 -19 -19
-19 -19 -19 -19 -19 -19 -19 -19 -19 -19 -19 -19 -19 -19 -19 -20 -20 -19 -19 -19 -19 -19 -19 -19 -19 -19 -19 -19 -19 -19 -19 -19 -19 -19 -20 -20 -20 -20 -20 -20 -20 -20
-19 -19 -19 -19 -19 -19 -19 -19 -19 -19 -19 -19 -20 -20 -20 -20 -20 -20 -20 -20 -19 -19 -19 -20 -20 -20 -19 -19 -19 -19 -19 -19 -19 -20 -20 -20 -20 -20 -20 -20 -20 -20
-19 -19 -19 -20 -20 -20 -20 -20 -20 -20 -20 -20 -20 -20 -20 -20 -20 -20 -20 -20 -20 -20 -20 -20 -20 -20 -20 -20 -20 -20 -20 -20 -20 -20 -20 -20 -20 -20 -20 -20 -20 -20
-19 -19 -19 -20 -20 -20 -20 -20 -20 -20 -20 -20 -20 -20 -20 -20 -20 -20 -20 -20 -20 -21 -21 -21 -21 -21 -21 -21 -21 -20 -20 -20 -20 -21 -20 -20 -20 -20 -20 -20 -20 -20
-20 -20 -20 -20 -20 -20 -20 -20 -20 -20 -20 -20 -20 -20 -20 -20 -20 -20 -20 -21 -21 -21 -21 -21 -21 -21 -21 -21 -21 -21 -21 -21 -21 -21 -21 -21 -21 -21 -20 -20 -20 -20
-20 -20 -20 -20 -20 -20 -20 -20 -20 -20 -20 -20 -20 -20 -20 -20 -20 -21 -21 -21 -21 -21 -21 -21 -21 -21 -21 -21 -21 -21 -21 -21 -21 -21 -21 -21 -21 -21 -21 -21 -21 -21
-20 -20 -20 -20 -21 -21 -21 -21 -21 -21 -21 -21 -21 -21 -20 -20 -21 -21 -21 -21 -21 -21 -21 -21 -21 -21 -21 -22 -22 -22 -22 -22 -21 -21 -21 -21 -21 -21 -21 -21 -21 -21
-20 -20 -20 -20 -21 -21 -21 -21 -21 -21 -21 -21 -21 -21 -21 -21 -21 -22 -22 -22 -22 -22 -22 -22 -22 -22 -22 -22 -22 -22 -22 -22 -22 -22 -22 -22 -21 -21 -21 -21 -21 -21
-20 -20 -21 -21 -21 -21 -21 -21 -21 -21 -21 -21 -21 -21 -21 -21 -21 -22 -22 -22 -22 -22 -22 -22 -22 -22 -22 -22 -22 -22 -22 -22 -22 -22 -22 -22 -22 -22 -22 -22 -21 -21
Height
5748 5749 5749 5748 5747 5746 5745 5745 5746 5746 5747 5746 5746 5746 5746 5747 5747 5748 5748 5748 5748 5748 5748 5748 5748 5748 5748 5748 5748 5749 5749 5749 5749 5749 5749 5749 5749 5749 5749 5748 5748 5748
5746 5747 5747 5747 5746 5745 5744 5743 5744 5745 5745 5745 5744 5744 5744 5745 5745 5746 5746 5747 5747 5747 5747 5747 5747 5747 5747 5747 5747 5747 5747 5747 5747 5748 5748 5748 5748 5747 5747 5747 5747 5746
5743 5743 5744 5744 5744 5743 5742 5742 5742 5743 5744 5744 5743 5743 5743 5743 5744 5744 5745 5745 5745 5745 5746 5746 5746 5746 5746 5745 5745 5746 5746 5746 5746 5746 5746 5746 5746 5746 5746 5746 5745 5745
5740 5740 5740 5741 5741 5740 5740 5740 5739 5740 5741 5742 5742 5742 5742 5742 5742 5743 5743 5744 5744 5744 5744 5744 5744 5745 5745 5744 5744 5744 5744 5744 5744 5744 5744 5744 5744 5744 5744 5744 5744 5743
5737 5737 5738 5739 5739 5739 5738 5738 5737 5737 5738 5739 5740 5740 5740 5740 5740 5741 5741 5742 5742 5742 5742 5742 5742 5743 5743 5743 5743 5743 5743 5743 5743 5743 5743 5743 5743 5743 5742 5742 5742 5742
5734 5735 5736 5737 5737 5737 5737 5736 5736 5735 5736 5736 5737 5738 5738 5738 5738 5739 5739 5739 5739 5739 5739 5739 5740 5740 5741 5741 5741 5742 5742 5742 5742 5742 5741 5741 5741 5741 5740 5740 5740 5740
5732 5733 5733 5734 5735 5735 5735 5734 5734 5734 5734 5734 5734 5735 5736 5736 5737 5737 5737 5737 5737 5737 5737 5737 5737 5738 5738 5738 5739 5739 5740 5740 5740 5740 5740 5740 5739 5739 5738 5738 5738 5738
5729 5730 5730 5730 5731 5732 5732 5732 5732 5732 5732 5733 5733 5732 5733 5733 5734 5735 5735 5736 5736 5736 5736 5736 5736 5736 5736 5736 5736 5737 5737 5737 5738 5738 5738 5738 5737 5737 5736 5736 5736 5736
5725 5726 5726 5726 5727 5728 5729 5730 5730 5730 5730 5731 5731 5731 5731 5731 5731 5732 5733 5733 5734 5734 5734 5734 5734 5735 5735 5734 5734 5734 5735 5735 5735 5736 5736 5736 5736 5735 5735 5735 5734 5734
5721 5721 5722 5722 5723 5724 5724 5726 5727 5727 5727 5728 5728 5728 5729 5729 5729 5729 5730 5730 5731 5731 5731 5731 5732 5732 5732 5732 5732 5732 5733 5733 5733 5733 5733 5733 5733 5733 5733 5733 5733 5732
5716 5717 5718 5718 5719 5720 5720 5720 5721 5722 5722 5723 5724 5725 5726 5727 5727 5727 5727 5727 5728 5728 5728 5728 5728 5728 5728 5728 5728 5728 5729 5730 5730 5730 5730 5730 5730 5730 5730 5730 5730 5730
5712 5713 5714 5715 5716 5716 5715 5715 5716 5717 5718 5719 5720 5721 5722 5723 5724 5724 5724 5724 5725 5725 5725 5725 5724 5724 5724 5725 5725 5725 5725 5725 5726 5726 5726 5726 5727 5727 5727 5727 5726 5726
5708 5710 5711 5711 5712 5712 5712 5712 5713 5715 5716 5716 5717 5717 5719 5720 5720 5720 5720 5720 5720 5721 5721 5721 5721 5721 5721 5722 5722 5722 5721 5720 5721 5722 5722 5723 5723 5724 5724 5724 5723 5723
5706 5706 5707 5707 5708 5708 5708 5709 5711 5712 5713 5714 5714 5714 5715 5716 5716 5715 5715 5715 5716 5716 5717 5717 5718 5717 5717 5717 5718 5718 5718 5717 5717 5718 5718 5718 5719 5720 5720 5720 5720 5720
5704 5704 5704 5704 5703 5704 5705 5706 5706 5707 5708 5709 5710 5710 5710 5711 5711 5711 5710 5710 5711 5711 5712 5712 5712 5712 5712 5712 5713 5713 5713 5713 5713 5713 5714 5714 5714 5715 5716 5716 5716 5716
5700 5701 5702 5701 5700 5700 5702 5702 5702 5702 5704 5705 5706 5706 5705 5706 5706 5706 5706 5706 5706 5706 5707 5706 5706 5706 5706 5707 5708 5708 5708 5708 5708 5708 5709 5709 5710 5711 5711 5712 5712 5712
5694 5696 5697 5696 5695 5696 5697 5698 5697 5697 5699 5700 5701 5700 5700 5700 5701 5701 5701 5701 5701 5701 5701 5701 5701 5701 5701 5702 5702 5702 5703 5703 5703 5703 5703 5704 5705 5705 5706 5706 5706 5706
5690 5690 5691 5690 5690 5690 5691 5691 5692 5692 5693 5694 5694 5694 5694 5695 5695 5696 5696 5696 5696 5696 5696 5696 5697 5697 5697 5697 5697 5697 5697 5698 5698 5697 5698 5698 5698 5699 5699 5699 5700 5700
5685 5685 5684 5684 5684 5684 5684 5685 5686 5686 5687 5688 5688 5689 5689 5689 5689 5690 5690 5690 5690 5690 5690 5690 5691 5691 5691 5692 5691 5691 5691 5691 5691 5691 5691 5692 5692 5693 5693 5693 5693 5694
5679 5679 5679 5678 5678 5679 5679 5679 5679 5680 5680 5681 5681 5682 5682 5683 5683 5683 5684 5684 5684 5684 5684 5684 5684 5685 5685 5685 5685 5685 5685 5685 5685 5685 5685 5686 5686 5687 5687 5687 5687 5687
5674 5674 5674 5674 5674 5674 5674 5674 5674 5675 5675 5675 5675 5676 5676 5677 5677 5678 5678 5678 5678 5678 5678 5678 5678 5678 5678 5679 5679 5679 5678 5678 5678 5678 5678 5679 5679 5680 5681 5680 5679 5679
5668 5669 5669 5669 5669 5669 5669 5669 5669 5669 5669 5670 5670 5670 5670 5670 5671 5671 5672 5672 5672 5672 5671 5671 5671 5671 5671 5672 5672 5672 5672 5671 5671 5671 5671 5671 5672 5672 5672 5672 5672 5672
5662 5663 5663 5663 5663 5663 5663 5663 5663 5663 5664 5664 5664 5664 5663 5663 5663 5663 5663 5663 5664 5664 5664 5664 5664 5664 5664 5664 5664 5664 5664 5664 5664 5664 5664 5664 5664 5664 5664 5664 5664 5664
5657 5657 5657 5656 5656 5656 5656 5657 5657 5657 5657 5657 5657 5657 5657 5657 5657 5656 5656 5656 5656 5656 5656 5656 5656 5656 5657 5657 5657 5657 5657 5657 5657 5657 5657 5657 5657 5657 5656 5656 5656 5656
5649 5650 5650 5650 5650 5650 5650 5650 5650 5650 5651 5651 5650 5651 5651 5651 5651 5650 5650 5650 5650 5649 5649 5649 5649 5649 5650 5650 5650 5650 5650 5650 5650 5650 5650 5649 5649 5649 5649 5648 5648 5648
5642 5643 5643 5643 5643 5643 5643 5644 5644 5644 5644 5643 5643 5644 5644 5644 5644 5644 5643 5643 5643 5643 5643 5643 5643 5643 5643 5643 5643 5643 5642 5642 5642 5642 5642 5642 5642 5642 5641 5641 5640 5640
Wind_Speed
18 15 15 16 15 13 12 12 12 13 14 13 10 7 6 7 8 9 9 9 9 9 8 8 8 7 7 7 7 7 8 8 9 10 11 12 12 13 14 14 14 13
18 18 17 17 14 13 13 14 14 13 13 12 10 7 6 7 7 8 9 9 9 8 8 8 8 8 7 7 7 7 7 8 9 9 10 11 12 13 13 13 13 13
18 20 19 17 14 14 14 15 15 14 12 11 11 9 8 8 8 8 9 10 10 9 9 10 10 10 9 9 8 8 8 8 9 10 11 11 12 13 13 13 13 13
19 21 20 18 16 14 15 16 16 15 14 13 12 12 11 9 9 9 10 10 11 11 12 12 12 12 12 12 11 11 10 9 10 10 11 12 13 14 14 14 14 13
20 19 18 18 18 16 17 18 18 17 16 15 13 12 11 10 9 9 10 11 12 13 13 13 13 13 13 13 13 13 12 12 11 11 11 12 13 14 15 16 15 15
19 17 16 17 18 19 20 21 20 18 17 15 14 13 12 11 11 10 11 12 13 14 14 13 12 12 12 12 13 14 14 14 13 12 12 12 13 14 15 16 17 17
20 19 18 19 19 20 21 22 21 19 18 16 15 14 14 14 14 13 12 12 13 14 14 14 13 12 12 12 12 13 15 16 15 15 15 14 14 15 15 16 17 17
23 23 23 23 21 21 22 23 23 21 19 17 16 16 16 17 17 16 14 13 14 14 14 14 13 13 14 14 14 15 15 16 16 17 17 17 17 17 17 17 17 17
26 25 26 25 24 24 23 24 24 24 22 19 18 17 17 18 19 18 17 16 15 16 16 15 16 17 17 17 17 17 17 17 17 18 19 19 20 20 20 20 19 18
28 27 26 25 26 26 26 25 25 25 24 22 20 20 19 19 20 21 20 19 18 19 20 20 20 21 21 21 21 21 21 20 20 20 21 21 22 22 22 22 22 21
28 26 24 25 26 27 28 29 28 27 27 25 24 24 24 24 23 23 22 22 22 23 24 25 25 25 24 24 25 26 25 25 24 23 24 24 24 24 24 25 25 24
23 23 26 28 27 26 27 28 29 27 26 26 26 27 28 28 27 27 27 27 26 26 26 27 28 28 28 28 29 31 32 33 33 30 27 25 25 25 25 26 27 26
23 26 29 30 29 27 27 26 26 26 25 25 28 29 30 30 30 29 30 30 29 29 28 28 29 30 31 31 32 33 33 33 33 31 27 24 24 26 26 27 28 29
29 29 28 29 29 29 28 28 29 30 30 30 31 30 28 29 31 31 31 31 31 30 29 29 31 33 34 34 33 33 33 31 30 28 26 25 25 25 26 28 29 30
31 31 26 25 26 27 26 24 25 28 30 32 32 28 26 28 31 32 33 33 33 31 31 32 34 36 37 37 36 36 36 36 34 31 30 30 30 29 28 29 30 31
33 34 32 31 33 34 31 28 29 31 33 35 36 35 35 35 34 34 35 37 37 36 37 38 39 39 40 39 39 39 40 40 39 36 35 35 35 35 34 33 32 33
36 36 37 40 42 42 40 40 41 41 40 40 41 43 45 44 42 42 43 43 42 40 39 39 39 40 42 42 42 42 42 43 42 41 40 39 38 38 38 38 37 37
38 38 39 41 43 43 43 43 43 43 43 43 44 46 48 48 48 48 48 47 46 45 44 43 43 44 45 47 47 47 47 47 46 44 43 42 41 41 40 40 40 39
41 41 41 42 42 41 40 40 41 42 43 44 45 47 48 48 48 48 48 48 49 50 50 49 49 49 49 51 51 50 50 50 48 47 45 44 44 43 42 42 41 40
43 43 42 42 41 40 40 40 41 42 43 45 46 46 46 46 46 46 46 47 48 50 51 52 51 51 51 52 52 51 51 50 49 47 47 47 47 46 46 45 45 44
43 42 42 42 42 41 42 43 43 44 45 46 47 47 48 48 48 48 47 47 47 47 48 49 49 49 49 50 50 51 51 51 51 51 51 51 51 50 50 49 49 48
45 44 43 43 43 44 45 46 47 47 48 49 49 50 52 52 52 51 49 48 47 47 46 47 47 47 47 47 48 49 50 51 52 53 53 52 52 52 52 51 51 51
49 48 47 47 47 48 49 50 50 51 51 51 51 52 53 53 53 52 51 50 49 48 47 47 47 47 47 47 47 48 49 49 50 51 51 51 51 51 51 51 51 50
52 51 52 52 52 53 53 53 52 52 52 52 53 53 53 53 52 52 52 51 50 50 49 48 48 48 48 48 48 48 48 49 50 50 50 51 51 51 51 51 50 50
56 55 56 56 55 55 54 53 52 52 53 54 54 54 54 53 52 52 52 52 52 51 51 51 51 50 50 49 49 50 50 50 51 51 52 52 52 52 52 52 52 51
57 56 55 55 54 54 53 53 52 53 54 55 55 55 55 54 52 52 52 53 53 53 53 53 53 53 52 52 52 52 52 52 51 51 50 51 51 51 51 51 52 52
Wind_Direction
273 266 283 294 290 282 275 271 271 270 269 265 262 268 284 295 299 299 295 290 284 277 274 273 272 271 271 268 267 268 269 270 270 268 266 263 261 258 257 257 257 258
276 273 285 290 289 284 275 273 271 267 268 265 258 258 269 283 292 298 298 292 284 274 267 266 264 264 266 269 271 272 272 272 272 271 270 269 267 264 261 259 258 256
284 276 276 273 272 274 270 270 271 267 265 264 263 261 262 271 282 294 302 299 291 285 280 278 274 269 266 264 265 266 268 271 272 273 273 273 274 273 271 267 264 261
285 272 267 257 251 259 265 266 267 267 265 264 267 268 267 272 284 294 300 297 291 289 289 289 286 283 280 275 271 267 266 267 270 273 275 276 276 276 276 276 275 272
283 271 268 258 248 253 263 265 263 264 266 267 269 273 276 277 283 292 294 287 281 280 283 286 286 287 288 286 284 281 276 271 268 269 271 274 275 275 274 275 276 277
279 269 270 267 261 261 265 263 257 257 264 268 270 274 279 279 278 282 282 278 274 273 274 275 277 281 285 288 290 291 288 283 277 273 270 269 268 269 270 270 270 271
278 272 276 279 273 268 264 260 255 255 258 263 269 274 277 277 276 276 275 273 272 273 274 271 271 275 278 281 285 288 289 286 284 284 281 276 270 266 265 266 267 267
278 273 276 281 278 271 264 257 255 257 257 257 263 270 275 277 278 278 277 274 272 271 274 276 280 283 283 282 281 281 281 280 280 282 282 280 276 271 267 265 264 265
276 273 274 276 277 274 267 259 258 260 260 258 259 263 270 275 278 281 280 278 274 270 270 276 283 289 289 286 283 282 279 275 274 276 278 276 274 271 269 264 261 260
273 272 272 274 275 272 267 262 261 262 261 258 257 260 265 269 273 278 280 280 280 277 275 278 283 287 286 281 280 282 280 275 273 274 274 274 272 271 270 265 260 257
271 271 272 273 273 273 273 267 262 260 261 260 259 261 264 267 268 270 273 275 277 278 279 280 283 285 286 283 283 284 281 276 274 277 276 272 269 269 269 268 265 261
268 270 270 270 270 274 277 270 260 254 254 256 259 261 264 266 268 267 266 267 269 273 275 276 278 281 283 284 283 284 284 279 275 277 278 273 269 267 265 265 265 264
266 271 272 270 270 272 273 270 262 254 252 257 262 265 266 266 269 269 267 265 265 266 267 268 272 276 277 277 278 281 283 280 276 276 276 273 274 273 267 262 261 262
264 271 274 272 269 270 270 269 266 261 260 264 268 269 269 269 270 271 269 268 268 266 264 265 269 272 273 273 275 278 280 280 281 283 281 278 280 279 273 265 261 260
261 265 274 276 271 269 266 259 256 259 262 265 266 266 271 274 272 269 268 268 269 269 270 272 273 273 273 273 274 278 279 279 282 286 286 284 284 283 280 274 267 263
266 265 268 269 269 270 266 256 256 266 272 272 268 266 270 275 271 268 272 272 271 271 273 275 275 274 275 275 275 277 278 279 283 286 285 285 284 283 283 282 276 271
272 269 264 263 268 272 271 266 267 272 275 274 272 271 274 276 273 272 275 276 274 274 274 273 274 274 275 277 278 278 278 280 283 285 285 284 284 283 283 283 281 278
272 271 268 270 274 276 274 271 271 274 274 274 275 276 277 277 276 275 275 275 275 275 275 274 275 275 276 277 279 279 279 279 281 282 283 283 283 283 283 283 282 280
271 271 272 275 278 278 277 274 273 274 275 275 276 275 275 275 276 276 275 275 274 274 274 274 275 275 275 276 277 278 278 278 278 280 281 281 281 281 280 280 279 277
270 271 273 274 275 276 276 276 275 276 277 277 277 276 276 277 278 277 276 275 274 272 272 272 272 273 273 273 274 275 276 277 276 277 278 278 278 277 277 277 276 275
271 270 270 271 271 272 274 274 274 276 278 279 278 278 278 279 279 278 276 274 272 271 271 271 271 272 271 271 272 272 273 274 275 276 276 277 276 276 276 276 276 276
271 270 268 268 269 270 272 272 271 273 276 278 278 278 278 278 278 277 275 273 272 271 270 271 271 271 271 270 270 271 271 272 274 275 276 277 277 277 277 276 276 276
268 268 267 267 267 268 270 270 269 271 275 278 279 279 278 278 278 278 277 275 274 273 272 271 271 271 271 271 272 272 272 273 273 274 275 276 276 276 276 276 276 276
264 265 267 268 269 269 269 269 269 271 275 278 280 279 278 277 277 277 277 277 276 275 274 273 272 272 272 272 273 273 273 273 274 274 275 275 276 276 276 276 276 275
263 264 266 268 269 269 268 266 268 272 276 279 281 279 276 275 274 274 274 274 274 274 274 273 273 272 272 272 272 272 273 273 274 274 275 275 275 276 276 276 276 275
260 261 263 265 267 267 265 264 267 274 279 280 281 279 276 273 271 270 270 271 271 271 271 271 272 272 272 272 272 273 273 273 274 275 275 275 276 275 275 275 275 275